[[{"header":{"parameterUnit":"m.s-1","parameterCategory":1,"la1":30.2991,"la2":30.254,"lo1":-89.0895,"lo2":-89.0444,"dy":0.0017,"dx":0.0017,"nx":28,"ny":28,"refTime":"2023-09-12T09:00:00:Z","depth":0,"parameterNumber":2,"parameterNumberName":"U-component_of_WINDS"},"data":[0,0,0,0,0,0,0,0,0,0,0,0,0,0,0,0,0,0,0,0,0,0,0,0,0,0,0,0,0,0,0,0,0,0,0,0,0,0,0,0,0,0,0,0,0,0,0,0,0,0,0,0,0,0,0,0,0,0,3.1621,3.1623,0,3.1764,3.1766,3.1767,3.1747,3.1745,3.1742,3.174,3.1887,3.1893,3.1899,0,0,0,0,0,0,0,0,0,0,0,0,0,3.1329,3.1335,3.1621,3.1623,3.1624,3.1764,3.1766,3.1768,3.1747,3.1745,3.1742,3.1739,3.1885,3.1892,3.1899,0,0,0,0,0,0,0,0,0,0,0,0,0,3.1463,3.1336,3.1621,3.1631,3.1633,3.1764,3.1766,3.1768,3.1748,3.1744,3.1741,3.1738,3.1882,3.1891,3.19,3.2029,0,0,3.1928,3.1932,0,0,0,0,0,0,0,0,3.1455,3.1473,3.1628,3.1631,3.1634,3.1734,3.1717,3.1856,3.1749,3.1705,3.174,3.1736,3.1839,3.1851,3.1886,3.2036,3.2042,3.1929,3.1935,3.1939,3.1941,0,0,0,0,0,0,0,3.1446,3.1467,3.1678,3.163,3.1634,3.1628,3.1643,3.1743,3.179,3.1708,3.1707,3.1724,3.184,3.1877,3.1889,3.2044,3.1929,3.1937,3.1943,3.1946,3.2306,3.231,0,0,0,0,0,0,3.1434,3.1459,3.1673,3.1682,3.1534,3.1637,3.1653,3.1705,3.1789,3.1798,3.1727,3.1723,3.1863,3.1879,3.1894,3.205,3.1939,3.1947,3.1952,3.2302,3.2307,3.2311,0,0,0,0,0,0,3.1428,3.1453,3.1667,3.157,3.1597,3.1646,3.1704,3.171,3.1748,3.1803,3.1811,3.1757,3.1861,3.1881,3.1995,3.2055,3.1951,3.196,3.2297,3.2303,3.2309,3.2362,0,0,0,0,0,0,3.1419,3.1451,3.15,3.1572,3.1603,3.1766,3.1708,3.1716,3.1764,3.1759,3.1833,3.1842,3.186,3.1982,3.2004,3.2065,3.1967,3.2292,3.23,3.2307,3.2355,3.2369,3.2381,0,0,0,0,0,3.1409,3.151,3.1503,3.1529,3.1665,3.177,3.1787,3.1805,3.1768,3.1818,3.1854,3.184,3.2045,3.1994,3.2019,3.2084,3.2288,3.2297,3.2306,3.2349,3.2366,3.2381,0,0,0,0,0,0,3.1444,3.1519,3.1513,3.164,3.1698,3.1766,3.1829,3.1823,3.1893,3.1886,3.1906,3.1923,3.2038,3.2072,3.2014,3.2212,3.2161,3.2176,3.2185,3.2202,3.2215,3.2204,3.1975,0,0,0,0,0,3.1467,3.1545,3.1607,3.1713,3.1743,3.1781,3.1827,3.1836,3.1898,3.1922,3.1966,3.2027,3.2104,3.2155,3.223,3.236,3.2376,3.2417,3.243,3.244,3.2453,3.2523,3.2542,3.2341,3.2341,3.234,0,0,3.1514,3.1565,3.1613,3.1721,3.1768,3.1848,3.1802,3.1889,3.1949,3.1936,3.2045,3.208,3.2149,3.2271,3.2327,3.2303,3.2512,3.2452,3.246,3.2467,3.2535,3.2554,3.2571,3.2347,3.2346,3.2345,0,0,3.1642,3.1688,3.1782,3.1829,3.19,3.1925,3.1947,3.2016,3.2038,3.2149,3.214,3.2212,3.2346,3.2395,3.2437,3.2583,3.2572,3.2606,3.2674,3.2743,3.2758,3.2773,3.2824,3.2842,3.2619,3.2619,3.2619,0,3.1692,3.1813,3.183,3.1919,3.1966,3.1957,3.2051,3.2097,3.2189,3.2221,3.2193,3.2361,3.2406,3.254,3.2575,3.261,3.2636,3.2598,3.2755,3.2769,3.2783,3.2832,3.2851,3.2622,3.2622,3.2622,3.2621,0,3.187,3.1954,3.2021,3.211,3.2165,3.2255,3.2286,3.234,3.2344,3.2372,3.2484,3.2539,3.2624,3.2656,3.2662,3.2791,3.2774,3.275,3.2699,3.2805,3.2851,3.287,3.2628,3.2626,3.2625,3.2624,0,0,3.2024,3.2121,3.2145,3.2185,3.2262,3.2327,3.2418,3.2501,3.2546,3.261,3.2685,3.2799,3.2777,3.2825,3.2836,3.2896,3.3007,3.2866,3.2867,3.2889,3.3152,3.3168,3.319,3.3001,3.3005,3.3008,3.3146,0,3.2158,3.2317,3.2336,3.2478,3.2555,3.2548,3.2626,3.2682,3.2711,3.278,3.2811,3.2891,3.2857,3.2886,3.2946,3.2981,3.306,3.2972,3.3071,3.3074,3.3053,3.3214,3.3232,3.336,3.3164,3.3167,3.317,0,3.2336,3.2404,3.2554,3.262,3.2653,3.2723,3.2801,3.2868,3.2931,3.2947,3.3001,3.3003,3.3096,3.3042,3.317,3.3109,3.3151,3.3175,3.318,3.3189,3.3128,3.3227,3.3402,3.342,3.3198,3.3196,3.3194,0,3.2432,3.2562,3.2667,3.2702,3.2782,3.2831,3.2867,3.2927,3.2975,3.3043,3.3075,3.3152,3.3195,3.3255,3.3278,3.3237,3.3405,3.3353,3.342,3.342,3.3455,3.3453,3.3638,3.3484,3.3484,3.3483,3.3483,0,3.258,3.2671,3.2712,3.2777,3.2879,3.2899,3.2999,3.3033,3.3086,3.3157,3.3156,3.3223,3.325,3.3321,3.334,3.3442,3.3462,3.3477,3.3481,3.3477,3.3475,3.3504,3.3495,3.3488,3.3487,3.3486,3.3485,0,3.2704,3.2735,3.285,3.2916,3.2935,3.3007,3.3063,3.3126,3.3154,3.3244,3.3266,3.3309,3.3393,3.3422,3.3524,3.3537,3.3655,3.3652,3.3634,3.3634,3.37,3.3693,3.391,3.3939,3.3766,3.3768,3.3769,0,3.2796,3.2866,3.294,3.2987,3.3024,3.3101,3.3151,3.3173,3.3225,3.3301,3.3355,3.3438,3.3505,3.3639,3.368,3.3757,3.3755,3.3826,3.3767,3.376,3.3755,3.375,3.3757,3.3837,3.3838,3.384,3.3841,0,3.2955,3.2967,3.3038,3.3115,3.3174,3.3236,3.3295,3.3334,3.3365,3.3423,3.3509,3.3561,3.3665,3.3747,3.3826,3.3863,3.3857,3.3859,3.3879,3.3875,3.3861,3.3869,3.3663,3.3854,3.3853,3.3852,3.3851,3.3851,3.3066,3.3127,3.3189,3.3268,3.3315,3.3371,3.3433,3.3468,3.3539,3.3625,3.3634,3.3725,3.3786,3.3892,3.3932,3.4004,3.3985,3.4013,3.402,3.4027,3.4031,3.3851,3.4019,3.4018,3.4018,3.4018,3.4018,0,3.3224,3.3263,3.3336,3.3419,3.3482,3.3471,3.3536,3.3589,3.3669,3.3727,3.3793,3.3891,3.397,3.4017,3.4096,3.4145,3.4144,3.4165,3.4161,3.417,3.4045,3.4019,3.4164,3.4164,3.4164,3.4164,3.4164,3.4164,3.3314,3.3418,3.3436,3.3563,3.3601,3.3691,3.3729,3.378,3.3825,3.3934,3.4,3.403,3.4083,3.4166,3.4239,3.425,3.4279,3.4302,3.4311,3.4194,3.4178,3.4164,3.414,3.4308,3.4308,3.443,3.4431,3.4432]},{"header":{"parameterUnit":"m.s-1","parameterCategory":1,"la1":30.2991,"la2":30.254,"lo1":-89.0895,"lo2":-89.0444,"dy":0.0017,"dx":0.0017,"nx":28,"ny":28,"refTime":"2023-09-12T09:00:00:Z","depth":0,"parameterNumber":3,"parameterNumberName":"V-component_of_WINDS"},"data":[0,0,0,0,0,0,0,0,0,0,0,0,0,0,0,0,0,0,0,0,0,0,0,0,0,0,0,0,0,0,0,0,0,0,0,0,0,0,0,0,0,0,0,0,0,0,0,0,0,0,0,0,0,0,0,0,0,0,-0.8807,-0.8807,0,-0.8855,-0.8855,-0.8856,-0.8853,-0.8853,-0.8852,-0.8851,-0.8901,-0.8903,-0.8905,0,0,0,0,0,0,0,0,0,0,0,0,0,-0.8713,-0.8715,-0.8807,-0.8807,-0.8808,-0.8855,-0.8855,-0.8856,-0.8853,-0.8853,-0.8852,-0.8851,-0.8901,-0.8903,-0.8906,0,0,0,0,0,0,0,0,0,0,0,0,0,-0.8757,-0.8716,-0.8806,-0.8812,-0.8813,-0.8855,-0.8855,-0.8856,-0.8854,-0.8852,-0.8851,-0.885,-0.89,-0.8903,-0.8906,-0.8945,0,0,-0.8915,-0.8916,0,0,0,0,0,0,0,0,-0.8755,-0.876,-0.8811,-0.8812,-0.8813,-0.8847,-0.8841,-0.8886,-0.8854,-0.8838,-0.8851,-0.885,-0.8884,-0.8888,-0.89,-0.8948,-0.895,-0.8915,-0.8917,-0.8918,-0.8919,0,0,0,0,0,0,0,-0.8752,-0.8758,-0.8826,-0.8811,-0.8813,-0.8813,-0.8818,-0.885,-0.8867,-0.8839,-0.8839,-0.8845,-0.8885,-0.8897,-0.8901,-0.8951,-0.8915,-0.8918,-0.892,-0.8921,-0.9034,-0.9035,0,0,0,0,0,0,-0.8747,-0.8756,-0.8824,-0.8827,-0.878,-0.8815,-0.8821,-0.8837,-0.8866,-0.887,-0.8846,-0.8845,-0.8892,-0.8898,-0.8903,-0.8951,-0.8918,-0.8921,-0.8923,-0.9033,-0.9034,-0.9036,0,0,0,0,0,0,-0.8745,-0.8753,-0.8822,-0.8792,-0.88,-0.8818,-0.8836,-0.8839,-0.8851,-0.8871,-0.8874,-0.8855,-0.8892,-0.8899,-0.8935,-0.8953,-0.8923,-0.8925,-0.9032,-0.9033,-0.9035,-0.9048,0,0,0,0,0,0,-0.8742,-0.8752,-0.8767,-0.8792,-0.8802,-0.8853,-0.8837,-0.884,-0.8856,-0.8855,-0.8881,-0.8884,-0.8891,-0.893,-0.8938,-0.8956,-0.8928,-0.903,-0.9032,-0.9035,-0.9046,-0.905,-0.9053,0,0,0,0,0,-0.8739,-0.8769,-0.8768,-0.8776,-0.8821,-0.8854,-0.886,-0.8868,-0.8857,-0.8873,-0.8886,-0.8883,-0.895,-0.8934,-0.8943,-0.8962,-0.9029,-0.9032,-0.9034,-0.9044,-0.9049,-0.9053,0,0,0,0,0,0,-0.8746,-0.8772,-0.8771,-0.881,-0.883,-0.8854,-0.8873,-0.8873,-0.8896,-0.8894,-0.8903,-0.8909,-0.8945,-0.8958,-0.894,-0.9002,-0.8988,-0.8993,-0.8993,-0.8998,-0.9001,-0.8997,-0.893,0,0,0,0,0,-0.8752,-0.8777,-0.8798,-0.8831,-0.8841,-0.8855,-0.887,-0.8874,-0.8895,-0.8904,-0.8919,-0.894,-0.8966,-0.8983,-0.9007,-0.9048,-0.9054,-0.9066,-0.907,-0.9073,-0.9076,-0.9099,-0.9105,-0.9045,-0.9045,-0.9045,0,0,-0.8765,-0.8782,-0.8797,-0.8832,-0.8848,-0.8874,-0.8862,-0.889,-0.8909,-0.8908,-0.8943,-0.8956,-0.8979,-0.9018,-0.9036,-0.903,-0.9094,-0.9076,-0.9078,-0.908,-0.9103,-0.9108,-0.9113,-0.9047,-0.9046,-0.9046,0,0,-0.8801,-0.8817,-0.8845,-0.8861,-0.8885,-0.8895,-0.8902,-0.8926,-0.8934,-0.897,-0.897,-0.8993,-0.9037,-0.9054,-0.9069,-0.9113,-0.9111,-0.9121,-0.914,-0.9162,-0.9167,-0.9171,-0.9187,-0.9192,-0.9124,-0.9124,-0.9124,0,-0.8814,-0.8852,-0.886,-0.8888,-0.8903,-0.8904,-0.8933,-0.8949,-0.898,-0.8991,-0.8983,-0.9039,-0.9055,-0.9098,-0.9109,-0.912,-0.9129,-0.9117,-0.9165,-0.917,-0.9174,-0.9189,-0.9195,-0.9125,-0.9125,-0.9125,-0.9125,0,-0.8866,-0.8893,-0.8913,-0.8943,-0.8961,-0.899,-0.9003,-0.902,-0.9023,-0.9034,-0.9071,-0.909,-0.9119,-0.913,-0.9133,-0.9174,-0.9169,-0.9163,-0.9149,-0.918,-0.9195,-0.92,-0.9127,-0.9126,-0.9126,-0.9126,0,0,-0.8907,-0.8942,-0.8949,-0.8963,-0.899,-0.9011,-0.904,-0.9068,-0.9083,-0.9105,-0.913,-0.9167,-0.9163,-0.9179,-0.9185,-0.9204,-0.9238,-0.9196,-0.9197,-0.9203,-0.9284,-0.9288,-0.9295,-0.9238,-0.9239,-0.924,-0.9282,0,-0.8946,-0.8996,-0.9005,-0.905,-0.9075,-0.9076,-0.9101,-0.9121,-0.9132,-0.9156,-0.9168,-0.9195,-0.9186,-0.9196,-0.9216,-0.923,-0.9254,-0.9227,-0.9261,-0.9262,-0.9254,-0.9302,-0.9306,-0.9345,-0.9288,-0.9289,-0.929,0,-0.8998,-0.9021,-0.9068,-0.9092,-0.9103,-0.9125,-0.9152,-0.9174,-0.9197,-0.9204,-0.9223,-0.9226,-0.9257,-0.9242,-0.9285,-0.9266,-0.9281,-0.929,-0.9292,-0.9295,-0.9277,-0.9306,-0.9358,-0.9364,-0.9298,-0.9298,-0.9297,0,-0.9022,-0.9065,-0.9099,-0.9111,-0.914,-0.9156,-0.9169,-0.9191,-0.9208,-0.9231,-0.9242,-0.927,-0.9285,-0.9306,-0.9317,-0.9305,-0.9359,-0.9345,-0.9366,-0.9366,-0.9377,-0.9376,-0.9431,-0.9387,-0.9387,-0.9387,-0.9387,0,-0.9064,-0.9093,-0.9111,-0.9131,-0.9164,-0.9174,-0.9206,-0.9219,-0.9238,-0.9262,-0.9265,-0.9288,-0.9301,-0.9326,-0.9335,-0.9369,-0.9376,-0.9383,-0.9385,-0.9382,-0.9381,-0.9391,-0.9389,-0.9388,-0.9388,-0.9388,-0.9387,0,-0.9097,-0.911,-0.9147,-0.9172,-0.9179,-0.9202,-0.9224,-0.9244,-0.9256,-0.9286,-0.9293,-0.9312,-0.9341,-0.9354,-0.939,-0.9396,-0.9435,-0.9436,-0.9427,-0.9428,-0.9448,-0.9446,-0.9512,-0.9521,-0.9471,-0.9471,-0.9472,0,-0.9123,-0.9145,-0.9173,-0.9188,-0.9202,-0.9228,-0.9245,-0.9256,-0.9274,-0.9302,-0.9319,-0.9348,-0.9372,-0.9419,-0.9436,-0.9464,-0.9465,-0.9486,-0.9469,-0.9466,-0.9465,-0.9463,-0.9466,-0.9489,-0.9489,-0.9489,-0.949,0,-0.9167,-0.9173,-0.9197,-0.9224,-0.9244,-0.9266,-0.9287,-0.93,-0.9315,-0.9335,-0.9364,-0.9383,-0.942,-0.9449,-0.9478,-0.9493,-0.9494,-0.9495,-0.9502,-0.9499,-0.9493,-0.9497,-0.9436,-0.9493,-0.9493,-0.9493,-0.9493,-0.9492,-0.9197,-0.9217,-0.924,-0.9267,-0.9284,-0.9304,-0.9325,-0.9339,-0.9364,-0.9394,-0.94,-0.9432,-0.9455,-0.9494,-0.951,-0.9535,-0.953,-0.9539,-0.9542,-0.9544,-0.9545,-0.949,-0.9541,-0.9541,-0.954,-0.954,-0.954,0,-0.9242,-0.9256,-0.9281,-0.9311,-0.9332,-0.9332,-0.9356,-0.9374,-0.9402,-0.9423,-0.9447,-0.9481,-0.951,-0.9529,-0.9559,-0.9575,-0.9577,-0.9583,-0.9581,-0.9585,-0.9548,-0.9539,-0.9581,-0.9581,-0.9581,-0.9581,-0.9581,-0.9581,-0.9267,-0.9301,-0.9309,-0.9352,-0.9367,-0.9397,-0.9411,-0.943,-0.9447,-0.9485,-0.9509,-0.9522,-0.9543,-0.9574,-0.96,-0.9605,-0.9616,-0.9622,-0.9627,-0.9592,-0.9587,-0.9583,-0.9575,-0.9624,-0.9624,-0.9662,-0.9662,-0.9662]}]]